sat.trackr.live / text

‹ back to catalog

STARLINK-11108 [DTC]

NORAD 59712 · 2024-088E

PAYLOAD ACTIVE UNKNOWN

§ Identity

Operator
Country
US
Launch date
2024-05-10
Launch site
AFWTR
Launch vehicle
Mass (kg)
RCS (m²)

Purposes: comms

External: N2YO · Heavens-Above · Gunter

§ Orbital elements

Epoch: 2026-05-24T22:08:37.051584Z

Period
91.74 min
Inclination
53.1589°
Eccentricity
0.0000897
Mean motion
15.69716591 rev/d
Perigee alt
359.1 km
Apogee alt
360.3 km
Semi-major
6,737.8 km
B*
2.3300e-5
RAAN
310.6060°
Arg perigee
74.1394°
Mean anomaly
285.9722°
Rev number
11,824

§ Raw data

STARLINK-11108 [DTC]1 59712U 24088E   26144.92265106  .00002236  00000+0  23300-4 0  99982 59712  53.1589 310.6060 0000897  74.1394 285.9722 15.69716591118246

JSON: /api/v1/satellites/59712 · /tle

For live sub-satellite position, see the globe view (requires WebGL).

§ Visibility from observer

Set your observer location to see the next 7 days of passes ≥ 10°. The values pass through the URL so the page stays shareable.

No JS? Fill the form by hand. The geolocation button needs JavaScript.